Weather in Metolkine

Ukraine / Luhansk Region     48°55′46″N   38°32′51″E
temp.,
°C
wind,
m/s
gust,
m/s
humid.,
%
clouds,
%
prec.,
mm/h
press.,
hPa
HPBL,
m
22 april, thu
thu2200:00+10sw376573 0.0 1018173
03:00+9sw37805 0.1 1019176
06:00+8sw25885 0.0 1020136
09:00+13sw34625 0.0 1021601
12:00+17wsw344038 0.1 10212121
15:00+18wsw3434100 0.1 10202418
18:00+16ssw334699 0.0 1021870
21:00+14ssw225296 0.1 102249
23 april, fri
fri2300:00+11ssw23615 0.0 102158
03:00+10sw237470 0.0 102173
06:00+10sw267982 0.0 1021168
09:00+12sw4668100 0.0 1021441
12:00+17sw564342 0.5 10202105
15:00+17ssw4639100 0.5 10181099
18:00+17sw464047 0.0 10171021
21:00+14sw5115430 0.0 1017631
24 april, sat
sat2400:00+11ssw51261100 0.0 1015559
03:00+11sw31070100 0.1 1014407
06:00+10sw51172100 0.0 1013670
09:00+8w5783100 0.8 10151102
12:00+12w584797 0.3 10152091
15:00+13w8113697 0.4 10142732
18:00+12w6103914 0.0 10152265
21:00+7w6116030 0.2 10171312
25 april, sun
sun2500:00+5w610615 0.0 1019967
03:00+5wnw6965100 0.0 10191193
06:00+5w58663 0.0 1020639
09:00+8wnw57485 0.0 10211240
12:00+11w563397 0.0 10212377
15:00+13w452972 0.0 10192448
18:00+12w343229 0.0 10192161
21:00+10sw1139100 0.0 102026
26 april, mon
mon2600:00+8ssw234571 0.0 101956
03:00+7ssw3448100 0.0 101879
06:00+6wsw255682 0.0 1018129
09:00+11ssw344391 0.0 1017724
12:00+14ssw683586 0.0 10152246
15:00+10w81070100 0.3 10151175
18:00+7wnw686544 0.1 10161033
21:00+6sw25664 0.1 1017222